Hourly Data Report for November 08, 2019

All times are specified in Local Standard Time (LST). Add 1 hour to adjust for Daylight Saving Time where and when it is observed.

QUALICUM BEACH AIRPORT
BRITISH COLUMBIA
Current Station Operator: ECCC - MSC

49°20'14.000" N
124°23'38.000" W
58.20 m
1026562
71766
VOQ

Download Data

Hourly Data (November 2019)
Hourly Data Report for November 8, 2019
TIME Temp Definition
°C
Dew Point Definition
°C
Rel Hum Definition
%
Wind Dir Definition
10's deg

Wind Spd Definition
km/h
Visibility Definition
km
Stn Press Definition
kPa
Hmdx Definition


Wind Chill Definition


Weather Definition


00:00 4.0 3.5 97 24 1   101.51     LegendNANA
01:00 4.2 3.8 97 26 1   101.54     LegendNANA
02:00 3.0 2.7 98   0   101.48     LegendNANA
03:00 3.5 3.2 98 28 2   101.45     LegendNANA
04:00 2.7 2.3 98   0   101.40     LegendNANA
05:00 2.9 2.6 98   0   101.37     LegendNANA
06:00 4.0 3.7 98 26 2   101.40     LegendNANA
07:00 4.0 3.7 98 0 1   101.38     LegendNANA
08:00 3.9 3.7 98 16 2   101.35     LegendNANA
09:00 6.1 5.8 98 21 2   101.34     LegendNANA
10:00 8.0 7.6 97 18 3   101.36     LegendNANA
11:00 8.1 6.9 92 8 5   101.39     LegendNANA
12:00 8.2 7.3 94 12 8   101.34     LegendNANA
13:00 8.1 6.9 92 12 7   101.30     LegendNANA
14:00 8.6 7.4 92 13 7   101.27     LegendNANA
15:00 8.6 7.4 93 10 7   101.22     LegendNANA
16:00 8.5 7.5 93 14 3   101.21     LegendNANA
17:00 8.1 7.2 94 33 2   101.23     LegendNANA
18:00 8.4 7.3 93 11 2   101.26     LegendNANA
19:00 8.0 7.1 94 32 4   101.26     LegendNANA
20:00 8.0 7.3 95 0 1   101.32     LegendNANA
21:00 8.1 7.5 96 0 1   101.35     LegendNANA
22:00 7.9 7.3 96 18 1   101.42     LegendNANA
23:00 8.1 7.6 97 17 4   101.40     LegendNANA

Notes on Data Quality.

Legend

  • E = Estimated
  • M = Missing
  • NA = Not Available
Date modified: